< Cyclone 199303 1993 Season Cyclone 199305 >
Cyclone 199304 (OLIVER)
General InformationTrack Information on Google MapsDetailed Wind InformationList of All Images || ResourceGoogle EarthGE AnimationAtom FeedGeoJSON
Detalied Best Track (Time Zone = UTC)
Year Month Day Hour Lat. Long. Pressure (hPa) Wind (kt) Class Image Chart
1993 2 5 00 -14.5 150.0 995 41 3 Image --
1993 2 5 06 -14.7 150.2 990 41 3 Image --
1993 2 5 12 -15.0 150.5 985 45 3 Image --
1993 2 5 18 -15.2 150.8 975 51 4 Image --
1993 2 6 00 -15.5 151.2 970 64 5 Image --
1993 2 6 06 -15.7 151.5 965 70 5 Image --
1993 2 6 12 -15.9 151.8 965 70 5 Image --
1993 2 6 18 -16.1 152.1 960 70 5 Image --
1993 2 7 00 -16.4 152.2 955 80 5 Image --
1993 2 7 06 -16.7 152.1 950 89 5 Image --
1993 2 7 12 -17.0 152.0 950 89 5 Image --
1993 2 7 18 -17.3 151.9 950 89 5 Image --
1993 2 8 00 -17.7 151.9 950 89 5 Image --
1993 2 8 06 -18.0 151.9 950 89 5 Image --
1993 2 8 12 -18.3 151.9 955 89 5 Image --
1993 2 8 18 -18.6 152.0 960 89 5 Image --
1993 2 9 00 -19.0 152.2 960 80 5 Image --
1993 2 9 06 -19.3 152.6 960 76 5 Image --
1993 2 9 12 -19.5 153.2 965 70 5 Image --
1993 2 9 18 -19.6 153.6 970 64 5 Image --
1993 2 10 00 -19.7 154.0 970 64 5 Image --
1993 2 10 06 -19.9 154.4 975 60 4 Image --
1993 2 10 12 -20.1 154.8 980 54 4 Image --
1993 2 10 18 -20.3 155.0 985 51 4 Image --
1993 2 11 00 -20.5 155.3 985 51 4 Image --
1993 2 11 06 -20.8 155.6 985 51 4 Image --
1993 2 11 12 -21.1 155.9 990 51 4 Image --
1993 2 11 18 -21.5 155.9 995 45 3 Image --
1993 2 12 00 -21.9 155.6 995 41 3 Image --
1993 2 12 06 -22.2 155.0 995 33 2 Image --
1993 2 12 12 -22.2 154.4 995 33 2 Image --
1993 2 12 18 -21.9 154.0 995 33 2 Image --
< Cyclone 199303 1993 Season Cyclone 199305 >

Help